Time,TemperatureF,DewpointF,PressureIn,WindDirection,WindDirectionDegrees,WindSpeedMPH,WindSpeedGustMPH,Humidity,HourlyPrecipIn,Conditions,Clouds,dailyrainin,SolarRadiationWatts/m^2,SoftwareType,DateUTC
2013-01-12 00:05:00,30.3,24.0,30.26,NNW,346,0.0,0.0,77,0.00,,,0.00,0,Wunderground v.1.15,2013-01-12 08:05:00,
2013-01-12 00:10:00,30.4,23.7,30.27,NNE,15,0.0,0.0,76,0.00,,,0.00,0,Wunderground v.1.15,2013-01-12 08:10:00,
2013-01-12 00:15:00,30.4,23.7,30.26,West,279,0.0,1.0,76,0.00,,,0.00,0,Wunderground v.1.15,2013-01-12 08:15:00,
2013-01-12 00:21:00,30.4,23.1,30.26,SSW,209,0.0,0.0,74,0.00,,,0.00,0,Wunderground v.1.15,2013-01-12 08:21:00,
2013-01-12 00:26:00,30.5,23.2,30.26,South,171,0.0,1.0,74,0.00,,,0.00,0,Wunderground v.1.15,2013-01-12 08:26:00,
2013-01-12 00:31:00,30.6,22.6,30.26,South,176,1.0,1.0,72,0.00,,,0.00,0,Wunderground v.1.15,2013-01-12 08:31:00,
2013-01-12 00:36:00,30.7,22.7,30.26,South,173,2.0,2.0,72,0.00,,,0.00,0,Wunderground v.1.15,2013-01-12 08:36:00,
2013-01-12 00:41:00,30.9,21.9,30.26,SSW,208,2.0,2.0,69,0.00,,,0.00,0,Wunderground v.1.15,2013-01-12 08:41:00,
2013-01-12 00:47:00,31.1,22.1,30.26,WSW,243,3.0,3.0,69,0.00,,,0.00,0,Wunderground v.1.15,2013-01-12 08:47:00,
2013-01-12 00:52:00,31.4,22.1,30.26,SSE,148,2.0,2.0,68,0.00,,,0.00,0,Wunderground v.1.15,2013-01-12 08:52:00,
2013-01-12 00:57:00,31.6,23.3,30.26,ESE,104,0.0,2.0,71,0.00,,,0.00,0,Wunderground v.1.15,2013-01-12 08:57:00,
2013-01-12 01:02:00,31.6,23.3,30.26,WNW,301,0.0,0.0,71,0.00,,,0.00,0,Wunderground v.1.15,2013-01-12 09:02:00,
2013-01-12 01:07:00,31.5,23.2,30.27,WSW,258,0.0,0.0,71,0.00,,,0.00,0,Wunderground v.1.15,2013-01-12 09:07:00,
2013-01-12 01:12:00,31.4,22.7,30.27,WSW,258,0.0,0.0,70,0.00,,,0.00,0,Wunderground v.1.15,2013-01-12 09:12:00,
2013-01-12 01:18:00,31.3,22.6,30.27,WSW,258,0.0,0.0,70,0.00,,,0.00,0,Wunderground v.1.15,2013-01-12 09:18:00,
2013-01-12 01:23:00,31.2,21.5,30.27,WSW,258,0.0,0.0,67,0.00,,,0.00,0,Wunderground v.1.15,2013-01-12 09:23:00,
2013-01-12 01:28:00,31.1,22.1,30.28,WSW,258,0.0,1.0,69,0.00,,,0.00,0,Wunderground v.1.15,2013-01-12 09:28:00,
2013-01-12 01:34:00,31.0,22.4,30.28,WSW,258,0.0,0.0,70,0.00,,,0.00,0,Wunderground v.1.15,2013-01-12 09:34:00,
2013-01-12 01:39:00,30.9,21.9,30.28,WSW,258,0.0,1.0,69,0.00,,,0.00,0,Wunderground v.1.15,2013-01-12 09:39:00,
2013-01-12 01:44:00,30.8,22.8,30.28,WSW,258,0.0,0.0,72,0.00,,,0.00,0,Wunderground v.1.15,2013-01-12 09:44:00,
2013-01-12 01:49:00,30.8,23.2,30.28,NW,314,0.0,1.0,73,0.00,,,0.00,0,Wunderground v.1.15,2013-01-12 09:49:00,
2013-01-12 01:54:00,30.6,23.6,30.29,WNW,283,0.0,0.0,75,0.00,,,0.00,0,Wunderground v.1.15,2013-01-12 09:54:00,
2013-01-12 01:59:00,30.5,22.2,30.28,WNW,283,0.0,0.0,71,0.00,,,0.00,0,Wunderground v.1.15,2013-01-12 09:59:00,
2013-01-12 02:04:00,30.3,21.3,30.28,West,271,1.0,1.0,69,0.00,,,0.00,0,Wunderground v.1.15,2013-01-12 10:04:00,
2013-01-12 02:09:00,30.2,22.6,30.29,West,271,0.0,1.0,73,0.00,,,0.00,0,Wunderground v.1.15,2013-01-12 10:09:00,
2013-01-12 02:14:00,30.1,23.8,30.29,West,271,0.0,0.0,77,0.00,,,0.00,0,Wunderground v.1.15,2013-01-12 10:14:00,
2013-01-12 02:19:00,29.9,22.6,30.28,NW,322,0.0,1.0,74,0.00,,,0.00,0,Wunderground v.1.15,2013-01-12 10:19:00,
2013-01-12 02:24:00,29.7,22.4,30.28,NW,322,0.0,1.0,74,0.00,,,0.00,0,Wunderground v.1.15,2013-01-12 10:24:00,
2013-01-12 02:29:00,29.5,22.6,30.28,NNE,13,0.0,1.0,75,0.00,,,0.00,0,Wunderground v.1.15,2013-01-12 10:29:00,
2013-01-12 02:34:00,29.3,22.7,30.28,NE,34,2.0,2.0,76,0.00,,,0.00,0,Wunderground v.1.15,2013-01-12 10:34:00,
2013-01-12 02:39:00,28.9,22.0,30.28,NE,53,1.0,3.0,75,0.00,,,0.00,0,Wunderground v.1.15,2013-01-12 10:39:00,
2013-01-12 02:44:00,28.6,22.0,30.28,North,350,1.0,1.0,76,0.00,,,0.00,0,Wunderground v.1.15,2013-01-12 10:44:00,
2013-01-12 02:49:00,28.5,21.9,30.28,North,350,0.0,1.0,76,0.00,,,0.00,0,Wunderground v.1.15,2013-01-12 10:49:00,
2013-01-12 02:54:00,28.4,22.4,30.28,North,5,1.0,1.0,78,0.00,,,0.00,0,Wunderground v.1.15,2013-01-12 10:54:00,
2013-01-12 02:59:00,28.1,22.4,30.28,North,5,0.0,1.0,79,0.00,,,0.00,0,Wunderground v.1.15,2013-01-12 10:59:00,
2013-01-12 03:05:00,27.9,21.9,30.28,NE,49,2.0,2.0,78,0.00,,,0.00,0,Wunderground v.1.15,2013-01-12 11:05:00,
2013-01-12 03:10:00,27.7,21.7,30.28,NE,49,0.0,3.0,78,0.00,,,0.00,0,Wunderground v.1.15,2013-01-12 11:10:00,
2013-01-12 03:15:00,27.5,21.5,30.28,NE,44,2.0,2.0,78,0.00,,,0.00,0,Wunderground v.1.15,2013-01-12 11:15:00,
2013-01-12 03:20:00,27.4,21.7,30.28,NE,44,0.0,2.0,79,0.00,,,0.00,0,Wunderground v.1.15,2013-01-12 11:20:00,
2013-01-12 03:25:00,27.2,21.8,30.27,NE,45,0.0,3.0,80,0.00,,,0.00,0,Wunderground v.1.15,2013-01-12 11:25:00,
2013-01-12 03:30:00,27.1,21.7,30.27,NE,43,2.0,3.0,80,0.00,,,0.00,0,Wunderground v.1.15,2013-01-12 11:30:00,
2013-01-12 03:35:00,26.8,21.5,30.27,NE,35,0.0,1.0,80,0.00,,,0.00,0,Wunderground v.1.15,2013-01-12 11:35:00,
2013-01-12 03:40:00,26.7,21.4,30.27,NE,55,1.0,2.0,80,0.00,,,0.00,0,Wunderground v.1.15,2013-01-12 11:40:00,
2013-01-12 03:45:00,26.5,21.5,30.27,NE,47,1.0,2.0,81,0.00,,,0.00,0,Wunderground v.1.15,2013-01-12 11:45:00,
2013-01-12 03:50:00,26.3,21.3,30.27,NE,50,1.0,3.0,81,0.00,,,0.00,0,Wunderground v.1.15,2013-01-12 11:50:00,
2013-01-12 03:55:00,26.1,20.8,30.27,NE,47,0.0,3.0,80,0.00,,,0.00,0,Wunderground v.1.15,2013-01-12 11:55:00,
2013-01-12 04:00:00,25.8,20.5,30.27,ENE,59,1.0,4.0,80,0.00,,,0.00,0,Wunderground v.1.15,2013-01-12 12:00:00,
2013-01-12 04:05:00,25.7,20.7,30.27,NE,46,4.0,4.0,81,0.00,,,0.00,0,Wunderground v.1.15,2013-01-12 12:05:00,
2013-01-12 04:10:00,25.5,20.5,30.27,West,270,0.0,4.0,81,0.00,,,0.00,0,Wunderground v.1.15,2013-01-12 12:10:00,
2013-01-12 04:15:00,25.4,20.7,30.27,NNE,24,1.0,1.0,82,0.00,,,0.00,0,Wunderground v.1.15,2013-01-12 12:15:00,
2013-01-12 04:20:00,25.4,20.7,30.27,NNW,330,0.0,0.0,82,0.00,,,0.00,0,Wunderground v.1.15,2013-01-12 12:20:00,
2013-01-12 04:25:00,25.3,20.6,30.27,NNE,31,0.0,1.0,82,0.00,,,0.00,0,Wunderground v.1.15,2013-01-12 12:25:00,
2013-01-12 04:30:00,25.1,20.4,30.27,NE,40,1.0,2.0,82,0.00,,,0.00,0,Wunderground v.1.15,2013-01-12 12:30:00,
2013-01-12 04:35:00,25.0,20.3,30.27,WNW,289,0.0,3.0,82,0.00,,,0.00,0,Wunderground v.1.15,2013-01-12 12:35:00,
2013-01-12 04:40:00,24.7,20.0,30.26,ENE,65,1.0,1.0,82,0.00,,,0.00,0,Wunderground v.1.15,2013-01-12 12:40:00,
2013-01-12 04:45:00,24.5,19.8,30.27,NW,320,2.0,4.0,82,0.00,,,0.00,0,Wunderground v.1.15,2013-01-12 12:45:00,
2013-01-12 04:50:00,24.5,19.8,30.27,NW,318,0.0,1.0,82,0.00,,,0.00,0,Wunderground v.1.15,2013-01-12 12:50:00,
2013-01-12 04:55:00,24.5,19.8,30.27,NNE,30,1.0,2.0,82,0.00,,,0.00,0,Wunderground v.1.15,2013-01-12 12:55:00,
2013-01-12 05:00:00,24.5,20.1,30.27,North,5,0.0,0.0,83,0.00,,,0.00,0,Wunderground v.1.15,2013-01-12 13:00:00,
2013-01-12 05:05:00,24.5,20.1,30.27,NNE,28,0.0,1.0,83,0.00,,,0.00,0,Wunderground v.1.15,2013-01-12 13:05:00,
2013-01-12 05:10:00,24.5,19.8,30.27,NW,319,0.0,0.0,82,0.00,,,0.00,0,Wunderground v.1.15,2013-01-12 13:10:00,
2013-01-12 05:15:00,24.5,19.8,30.27,NNW,331,0.0,2.0,82,0.00,,,0.00,0,Wunderground v.1.15,2013-01-12 13:15:00,
2013-01-12 05:20:00,24.5,19.8,30.27,NW,322,0.0,0.0,82,0.00,,,0.00,0,Wunderground v.1.15,2013-01-12 13:20:00,
2013-01-12 05:25:00,24.5,19.8,30.27,NNW,344,0.0,1.0,82,0.00,,,0.00,0,Wunderground v.1.15,2013-01-12 13:25:00,
2013-01-12 05:30:00,24.4,19.7,30.27,North,360,0.0,0.0,82,0.00,,,0.00,0,Wunderground v.1.15,2013-01-12 13:30:00,
2013-01-12 05:35:00,24.4,19.7,30.27,NE,45,0.0,3.0,82,0.00,,,0.00,0,Wunderground v.1.15,2013-01-12 13:35:00,
2013-01-12 05:40:00,24.3,19.6,30.28,ENE,61,0.0,0.0,82,0.00,,,0.00,0,Wunderground v.1.15,2013-01-12 13:40:00,
2013-01-12 05:45:00,24.1,19.4,30.28,North,9,0.0,1.0,82,0.00,,,0.00,0,Wunderground v.1.15,2013-01-12 13:45:00,
2013-01-12 05:50:00,24.0,19.3,30.28,NW,322,0.0,0.0,82,0.00,,,0.00,0,Wunderground v.1.15,2013-01-12 13:50:00,
2013-01-12 05:55:00,24.0,19.3,30.28,NNE,32,0.0,1.0,82,0.00,,,0.00,0,Wunderground v.1.15,2013-01-12 13:55:00,
2013-01-12 06:00:00,23.9,19.5,30.28,NE,44,0.0,0.0,83,0.00,,,0.00,0,Wunderground v.1.15,2013-01-12 14:00:00,
2013-01-12 06:05:00,23.9,19.5,30.28,NW,306,0.0,1.0,83,0.00,,,0.00,0,Wunderground v.1.15,2013-01-12 14:05:00,
2013-01-12 06:10:00,23.8,18.5,30.28,NW,311,0.0,0.0,80,0.00,,,0.00,0,Wunderground v.1.15,2013-01-12 14:10:00,
2013-01-12 06:15:00,23.8,19.1,30.28,NW,326,0.0,1.0,82,0.00,,,0.00,0,Wunderground v.1.15,2013-01-12 14:15:00,
2013-01-12 06:20:00,23.7,18.4,30.28,NW,321,0.0,0.0,80,0.00,,,0.00,0,Wunderground v.1.15,2013-01-12 14:20:00,
2013-01-12 06:25:00,23.7,19.3,30.28,NE,49,2.0,2.0,83,0.00,,,0.00,0,Wunderground v.1.15,2013-01-12 14:25:00,
2013-01-12 06:30:00,23.6,18.9,30.28,NE,44,0.0,2.0,82,0.00,,,0.00,0,Wunderground v.1.15,2013-01-12 14:30:00,
2013-01-12 06:35:00,23.5,18.5,30.28,NW,315,0.0,2.0,81,0.00,,,0.00,0,Wunderground v.1.15,2013-01-12 14:35:00,
2013-01-12 06:40:00,23.4,18.7,30.29,NNE,29,1.0,1.0,82,0.00,,,0.00,0,Wunderground v.1.15,2013-01-12 14:40:00,
2013-01-12 06:45:00,23.2,18.2,30.29,NW,311,0.0,3.0,81,0.00,,,0.00,0,Wunderground v.1.15,2013-01-12 14:45:00,
2013-01-12 06:50:00,23.1,18.1,30.29,NW,319,0.0,1.0,81,0.00,,,0.00,0,Wunderground v.1.15,2013-01-12 14:50:00,
2013-01-12 06:55:00,23.1,18.1,30.29,NNW,329,0.0,1.0,81,0.00,,,0.00,0,Wunderground v.1.15,2013-01-12 14:55:00,
2013-01-12 07:02:00,23.0,18.3,30.29,NNW,332,1.0,1.0,82,0.00,,,0.00,0,Wunderground v.1.15,2013-01-12 15:02:00,
2013-01-12 07:07:00,23.0,18.3,30.29,NE,40,2.0,3.0,82,0.00,,,0.00,0,Wunderground v.1.15,2013-01-12 15:07:00,
2013-01-12 07:12:00,23.0,18.6,30.29,North,5,0.0,0.0,83,0.00,,,0.00,0,Wunderground v.1.15,2013-01-12 15:12:00,
2013-01-12 07:17:00,23.1,18.7,30.29,ENE,58,2.0,3.0,83,0.00,,,0.00,0,Wunderground v.1.15,2013-01-12 15:17:00,
2013-01-12 07:22:00,23.1,18.4,30.29,NW,324,0.0,0.0,82,0.00,,,0.00,0,Wunderground v.1.15,2013-01-12 15:22:00,
2013-01-12 07:27:00,23.2,19.1,30.29,NE,49,1.0,3.0,84,0.00,,,0.00,0,Wunderground v.1.15,2013-01-12 15:27:00,
2013-01-12 07:32:00,23.2,18.5,30.29,NNW,338,0.0,1.0,82,0.00,,,0.00,0,Wunderground v.1.15,2013-01-12 15:32:00,
2013-01-12 07:37:00,23.2,18.5,30.29,NNW,338,0.0,1.0,82,0.00,,,0.00,0,Wunderground v.1.15,2013-01-12 15:37:00,
2013-01-12 07:42:00,23.3,18.9,30.29,NNW,335,0.0,1.0,83,0.00,,,0.00,5,Wunderground v.1.15,2013-01-12 15:42:00,
2013-01-12 07:47:00,23.3,18.6,30.29,NNE,33,0.0,3.0,82,0.00,,,0.00,5,Wunderground v.1.15,2013-01-12 15:47:00,
2013-01-12 07:52:00,23.2,18.5,30.29,NNE,16,0.0,2.0,82,0.00,,,0.00,5,Wunderground v.1.15,2013-01-12 15:52:00,
2013-01-12 07:57:00,23.2,17.9,30.29,NNE,15,0.0,3.0,80,0.00,,,0.00,21,Wunderground v.1.15,2013-01-12 15:57:00,
2013-01-12 08:02:00,23.2,18.2,30.29,NE,39,0.0,2.0,81,0.00,,,0.00,25,Wunderground v.1.15,2013-01-12 16:02:00,
2013-01-12 08:07:00,23.1,18.1,30.30,NW,309,0.0,4.0,81,0.00,,,0.00,28,Wunderground v.1.15,2013-01-12 16:07:00,
2013-01-12 08:12:00,23.0,18.0,30.29,NE,42,1.0,2.0,81,0.00,,,0.00,32,Wunderground v.1.15,2013-01-12 16:12:00,
2013-01-12 08:17:00,23.0,18.3,30.29,NE,36,0.0,2.0,82,0.00,,,0.00,35,Wunderground v.1.15,2013-01-12 16:17:00,
2013-01-12 08:22:00,23.0,18.3,30.30,NE,45,1.0,2.0,82,0.00,,,0.00,39,Wunderground v.1.15,2013-01-12 16:22:00,
2013-01-12 08:28:00,23.3,18.6,30.30,ENE,59,0.0,2.0,82,0.00,,,0.00,40,Wunderground v.1.15,2013-01-12 16:28:00,
2013-01-12 08:33:00,23.5,18.8,30.30,NE,47,0.0,3.0,82,0.00,,,0.00,44,Wunderground v.1.15,2013-01-12 16:33:00,
2013-01-12 08:38:00,23.9,19.2,30.29,East,89,0.0,3.0,82,0.00,,,0.00,49,Wunderground v.1.15,2013-01-12 16:38:00,
2013-01-12 08:43:00,24.4,19.4,30.29,ESE,113,0.0,0.0,81,0.00,,,0.00,51,Wunderground v.1.15,2013-01-12 16:43:00,
2013-01-12 08:48:00,24.7,19.4,30.29,SE,139,0.0,1.0,80,0.00,,,0.00,49,Wunderground v.1.15,2013-01-12 16:48:00,
2013-01-12 08:53:00,25.1,19.2,30.29,SSE,161,0.0,0.0,78,0.00,,,0.00,58,Wunderground v.1.15,2013-01-12 16:53:00,
2013-01-12 08:58:00,25.5,20.2,30.29,East,92,0.0,1.0,80,0.00,,,0.00,56,Wunderground v.1.15,2013-01-12 16:58:00,
2013-01-12 09:03:00,26.1,20.5,30.29,NE,51,0.0,0.0,79,0.00,,,0.00,79,Wunderground v.1.15,2013-01-12 17:03:00,
2013-01-12 09:08:00,26.6,20.7,30.29,NNE,28,0.0,3.0,78,0.00,,,0.00,86,Wunderground v.1.15,2013-01-12 17:08:00,
2013-01-12 09:13:00,27.2,21.2,30.29,NE,46,0.0,3.0,78,0.00,,,0.00,95,Wunderground v.1.15,2013-01-12 17:13:00,
2013-01-12 09:18:00,27.6,21.3,30.29,NE,46,0.0,3.0,77,0.00,,,0.00,160,Wunderground v.1.15,2013-01-12 17:18:00,
2013-01-12 09:23:00,28.3,21.4,30.29,NE,46,0.0,0.0,75,0.00,,,0.00,209,Wunderground v.1.15,2013-01-12 17:23:00,
2013-01-12 09:28:00,28.8,21.9,30.29,NE,46,0.0,1.0,75,0.00,,,0.00,250,Wunderground v.1.15,2013-01-12 17:28:00,
2013-01-12 09:33:00,29.2,21.9,30.29,NE,46,1.0,2.0,74,0.00,,,0.00,315,Wunderground v.1.15,2013-01-12 17:33:00,
2013-01-12 09:38:00,29.3,22.0,30.29,NE,46,0.0,2.0,74,0.00,,,0.00,336,Wunderground v.1.15,2013-01-12 17:38:00,
2013-01-12 09:43:00,28.9,21.7,30.29,NE,51,0.0,1.0,74,0.00,,,0.00,357,Wunderground v.1.15,2013-01-12 17:43:00,
2013-01-12 09:48:00,29.5,22.6,30.29,ENE,69,0.0,1.0,75,0.00,,,0.00,260,Wunderground v.1.15,2013-01-12 17:48:00,
2013-01-12 09:53:00,30.5,22.5,30.29,ENE,69,2.0,2.0,72,0.00,,,0.00,88,Wunderground v.1.15,2013-01-12 17:53:00,
2013-01-12 09:58:00,31.5,22.5,30.29,SE,139,0.0,2.0,69,0.00,,,0.00,195,Wunderground v.1.15,2013-01-12 17:58:00,
2013-01-12 10:03:00,32.1,22.0,30.29,South,171,0.0,1.0,66,0.00,,,0.00,121,Wunderground v.1.15,2013-01-12 18:03:00,
2013-01-12 10:08:00,33.0,19.8,30.29,ESE,103,0.0,3.0,58,0.00,,,0.00,98,Wunderground v.1.15,2013-01-12 18:08:00,
2013-01-12 10:13:00,33.9,21.5,30.29,SW,232,0.0,1.0,60,0.00,,,0.00,90,Wunderground v.1.15,2013-01-12 18:13:00,
2013-01-12 10:18:00,34.8,22.3,30.29,ENE,76,0.0,2.0,60,0.00,,,0.00,91,Wunderground v.1.15,2013-01-12 18:18:00,
2013-01-12 10:23:00,35.7,22.8,30.28,SE,142,0.0,3.0,59,0.00,,,0.00,102,Wunderground v.1.15,2013-01-12 18:23:00,
2013-01-12 10:29:00,36.4,20.4,30.29,NE,51,1.0,5.0,52,0.00,,,0.00,353,Wunderground v.1.15,2013-01-12 18:29:00,
2013-01-12 10:34:00,37.2,19.8,30.28,NE,54,1.0,3.0,49,0.00,,,0.00,404,Wunderground v.1.15,2013-01-12 18:34:00,
2013-01-12 10:39:00,37.1,19.7,30.28,East,97,0.0,3.0,49,0.00,,,0.00,86,Wunderground v.1.15,2013-01-12 18:39:00,
2013-01-12 10:44:00,37.1,19.2,30.28,NNW,344,0.0,1.0,48,0.00,,,0.00,83,Wunderground v.1.15,2013-01-12 18:44:00,
2013-01-12 10:49:00,37.9,17.9,30.28,SE,126,0.0,3.0,44,0.00,,,0.00,69,Wunderground v.1.15,2013-01-12 18:49:00,
2013-01-12 10:54:00,37.7,16.6,30.27,ENE,75,1.0,3.0,42,0.00,,,0.00,79,Wunderground v.1.15,2013-01-12 18:54:00,
2013-01-12 10:59:00,38.4,19.9,30.27,ESE,111,0.0,3.0,47,0.00,,,0.00,77,Wunderground v.1.15,2013-01-12 18:59:00,
2013-01-12 11:04:00,38.8,17.6,30.27,East,83,0.0,2.0,42,0.00,,,0.00,74,Wunderground v.1.15,2013-01-12 19:04:00,
2013-01-12 11:09:00,39.1,19.0,30.26,NNW,335,0.0,4.0,44,0.00,,,0.00,67,Wunderground v.1.15,2013-01-12 19:09:00,
2013-01-12 11:14:00,39.2,18.0,30.26,East,80,1.0,3.0,42,0.00,,,0.00,69,Wunderground v.1.15,2013-01-12 19:14:00,
2013-01-12 11:19:00,39.2,16.9,30.26,West,278,1.0,3.0,40,0.00,,,0.00,63,Wunderground v.1.15,2013-01-12 19:19:00,
2013-01-12 11:24:00,39.8,16.8,30.26,SE,135,0.0,3.0,39,0.00,,,0.00,155,Wunderground v.1.15,2013-01-12 19:24:00,
2013-01-12 11:29:00,40.2,20.0,30.25,East,89,0.0,3.0,44,0.00,,,0.00,67,Wunderground v.1.15,2013-01-12 19:29:00,
2013-01-12 11:34:00,40.1,16.5,30.25,NE,53,4.0,4.0,38,0.00,,,0.00,70,Wunderground v.1.15,2013-01-12 19:34:00,
2013-01-12 11:39:00,40.4,16.8,30.25,ESE,115,1.0,4.0,38,0.00,,,0.00,54,Wunderground v.1.15,2013-01-12 19:39:00,
2013-01-12 11:44:00,40.6,16.9,30.24,ENE,73,2.0,2.0,38,0.00,,,0.00,60,Wunderground v.1.15,2013-01-12 19:44:00,
2013-01-12 11:49:00,40.7,19.9,30.24,NE,55,3.0,5.0,43,0.00,,,0.00,56,Wunderground v.1.15,2013-01-12 19:49:00,
2013-01-12 11:54:00,40.6,16.9,30.24,East,92,3.0,4.0,38,0.00,,,0.00,58,Wunderground v.1.15,2013-01-12 19:54:00,
2013-01-12 11:59:00,40.6,15.7,30.24,SW,226,2.0,4.0,36,0.00,,,0.00,62,Wunderground v.1.15,2013-01-12 19:59:00,
2013-01-12 12:04:00,40.9,17.2,30.23,ENE,61,3.0,3.0,38,0.00,,,0.00,88,Wunderground v.1.15,2013-01-12 20:04:00,
2013-01-12 12:09:00,41.2,18.1,30.23,NE,46,1.0,5.0,39,0.00,,,0.00,79,Wunderground v.1.15,2013-01-12 20:09:00,
2013-01-12 12:14:00,41.4,17.7,30.23,NE,44,3.0,3.0,38,0.00,,,0.00,65,Wunderground v.1.15,2013-01-12 20:14:00,
2013-01-12 12:19:00,41.1,16.1,30.22,ESE,107,0.0,3.0,36,0.00,,,0.00,67,Wunderground v.1.15,2013-01-12 20:19:00,
2013-01-12 12:24:00,41.1,14.8,30.22,ESE,119,0.0,5.0,34,0.00,,,0.00,148,Wunderground v.1.15,2013-01-12 20:24:00,
2013-01-12 12:30:00,41.5,19.5,30.22,ENE,61,1.0,5.0,41,0.00,,,0.00,72,Wunderground v.1.15,2013-01-12 20:30:00,
2013-01-12 12:35:00,41.9,18.1,30.22,ENE,63,3.0,3.0,38,0.00,,,0.00,97,Wunderground v.1.15,2013-01-12 20:35:00,
2013-01-12 12:40:00,41.9,16.2,30.21,SE,133,0.0,4.0,35,0.00,,,0.00,121,Wunderground v.1.15,2013-01-12 20:40:00,
2013-01-12 12:45:00,42.4,19.8,30.21,ENE,72,0.0,4.0,40,0.00,,,0.00,475,Wunderground v.1.15,2013-01-12 20:45:00,
2013-01-12 12:50:00,42.3,15.9,30.21,ESE,114,0.0,4.0,34,0.00,,,0.00,512,Wunderground v.1.15,2013-01-12 20:50:00,
2013-01-12 12:55:00,42.1,15.7,30.21,ENE,63,1.0,4.0,34,0.00,,,0.00,325,Wunderground v.1.15,2013-01-12 20:55:00,
2013-01-12 13:00:00,42.0,15.6,30.20,SE,143,0.0,5.0,34,0.00,,,0.00,97,Wunderground v.1.15,2013-01-12 21:00:00,
2013-01-12 13:05:00,42.8,19.5,30.20,ESE,113,0.0,4.0,39,0.00,,,0.00,90,Wunderground v.1.15,2013-01-12 21:05:00,
2013-01-12 13:10:00,42.7,16.9,30.20,NE,53,0.0,1.0,35,0.00,,,0.00,60,Wunderground v.1.15,2013-01-12 21:10:00,
2013-01-12 13:15:00,42.4,16.6,30.20,NW,313,0.0,3.0,35,0.00,,,0.00,47,Wunderground v.1.15,2013-01-12 21:15:00,
2013-01-12 13:20:00,42.4,15.3,30.20,East,89,0.0,2.0,33,0.00,,,0.00,54,Wunderground v.1.15,2013-01-12 21:20:00,
2013-01-12 13:25:00,42.6,17.5,30.20,East,94,1.0,3.0,36,0.00,,,0.00,67,Wunderground v.1.15,2013-01-12 21:25:00,
2013-01-12 13:30:00,42.9,16.4,30.20,ESE,109,2.0,2.0,34,0.00,,,0.00,139,Wunderground v.1.15,2013-01-12 21:30:00,
2013-01-12 13:35:00,43.4,16.2,30.20,East,85,0.0,4.0,33,0.00,,,0.00,156,Wunderground v.1.15,2013-01-12 21:35:00,
2013-01-12 13:40:00,43.3,19.4,30.20,ENE,71,2.0,2.0,38,0.00,,,0.00,248,Wunderground v.1.15,2013-01-12 21:40:00,
2013-01-12 13:45:00,43.6,18.4,30.20,NE,55,0.0,4.0,36,0.00,,,0.00,554,Wunderground v.1.15,2013-01-12 21:45:00,
2013-01-12 13:50:00,44.0,15.3,30.20,South,174,1.0,1.0,31,0.00,,,0.00,246,Wunderground v.1.15,2013-01-12 21:50:00,
2013-01-12 13:55:00,43.8,16.5,30.20,ENE,74,1.0,3.0,33,0.00,,,0.00,283,Wunderground v.1.15,2013-01-12 21:55:00,
2013-01-12 14:00:00,44.0,16.7,30.20,ENE,65,1.0,2.0,33,0.00,,,0.00,262,Wunderground v.1.15,2013-01-12 22:00:00,
2013-01-12 14:05:00,43.5,18.9,30.20,ENE,58,0.0,3.0,37,0.00,,,0.00,313,Wunderground v.1.15,2013-01-12 22:05:00,
2013-01-12 14:10:00,43.8,18.5,30.20,East,84,0.0,1.0,36,0.00,,,0.00,179,Wunderground v.1.15,2013-01-12 22:10:00,
2013-01-12 14:15:00,43.1,16.6,30.20,East,82,0.0,3.0,34,0.00,,,0.00,128,Wunderground v.1.15,2013-01-12 22:15:00,
2013-01-12 14:20:00,42.7,19.4,30.21,ESE,120,0.0,1.0,39,0.00,,,0.00,114,Wunderground v.1.15,2013-01-12 22:20:00,
2013-01-12 14:25:00,42.2,19.0,30.21,NE,44,2.0,2.0,39,0.00,,,0.00,102,Wunderground v.1.15,2013-01-12 22:25:00,
2013-01-12 14:31:00,42.0,16.3,30.21,North,11,0.0,1.0,35,0.00,,,0.00,86,Wunderground v.1.15,2013-01-12 22:31:00,
2013-01-12 14:36:00,41.6,17.8,30.21,NE,54,1.0,2.0,38,0.00,,,0.00,79,Wunderground v.1.15,2013-01-12 22:36:00,
2013-01-12 14:41:00,41.4,17.0,30.21,East,92,0.0,3.0,37,0.00,,,0.00,70,Wunderground v.1.15,2013-01-12 22:41:00,
2013-01-12 14:46:00,41.2,18.7,30.21,NE,50,1.0,3.0,40,0.00,,,0.00,69,Wunderground v.1.15,2013-01-12 22:46:00,
2013-01-12 14:51:00,41.1,18.6,30.21,ESE,107,0.0,1.0,40,0.00,,,0.00,69,Wunderground v.1.15,2013-01-12 22:51:00,
2013-01-12 14:56:00,41.0,18.5,30.21,ESE,107,0.0,1.0,40,0.00,,,0.00,69,Wunderground v.1.15,2013-01-12 22:56:00,
2013-01-12 15:02:00,40.5,17.5,30.22,ESE,111,0.0,1.0,39,0.00,,,0.00,67,Wunderground v.1.15,2013-01-12 23:02:00,
2013-01-12 15:07:00,40.2,16.0,30.22,NE,47,0.0,3.0,37,0.00,,,0.00,67,Wunderground v.1.15,2013-01-12 23:07:00,
2013-01-12 15:12:00,40.2,14.0,30.22,ESE,113,0.0,2.0,34,0.00,,,0.00,63,Wunderground v.1.15,2013-01-12 23:12:00,
2013-01-12 15:17:00,39.9,14.4,30.22,NE,35,0.0,3.0,35,0.00,,,0.00,58,Wunderground v.1.15,2013-01-12 23:17:00,
2013-01-12 15:22:00,39.7,12.2,30.21,SW,226,1.0,3.0,32,0.00,,,0.00,58,Wunderground v.1.15,2013-01-12 23:22:00,
2013-01-12 15:27:00,39.6,17.2,30.21,NE,38,1.0,3.0,40,0.00,,,0.00,56,Wunderground v.1.15,2013-01-12 23:27:00,
2013-01-12 15:32:00,39.4,14.0,30.21,SSW,209,0.0,2.0,35,0.00,,,0.00,54,Wunderground v.1.15,2013-01-12 23:32:00,
2013-01-12 15:37:00,39.0,17.3,30.21,East,90,1.0,2.0,41,0.00,,,0.00,53,Wunderground v.1.15,2013-01-12 23:37:00,
2013-01-12 15:42:00,38.8,15.3,30.22,ESE,119,0.0,1.0,38,0.00,,,0.00,46,Wunderground v.1.15,2013-01-12 23:42:00,
2013-01-12 15:47:00,38.7,17.0,30.22,SSW,194,0.0,3.0,41,0.00,,,0.00,40,Wunderground v.1.15,2013-01-12 23:47:00,
2013-01-12 15:52:00,38.7,14.0,30.21,WSW,241,0.0,1.0,36,0.00,,,0.00,39,Wunderground v.1.15,2013-01-12 23:52:00,
2013-01-12 15:57:00,38.5,15.1,30.21,SSE,164,0.0,2.0,38,0.00,,,0.00,33,Wunderground v.1.15,2013-01-12 23:57:00,
2013-01-12 16:02:00,38.2,14.2,30.21,SW,235,1.0,1.0,37,0.00,,,0.00,28,Wunderground v.1.15,2013-01-13 00:02:00,
2013-01-12 16:07:00,38.0,18.5,30.21,SE,132,1.0,2.0,45,0.00,,,0.00,21,Wunderground v.1.15,2013-01-13 00:07:00,
2013-01-12 16:12:00,37.7,17.7,30.21,ESE,122,0.0,1.0,44,0.00,,,0.00,19,Wunderground v.1.15,2013-01-13 00:12:00,
2013-01-12 16:17:00,37.5,17.0,30.21,SE,140,0.0,2.0,43,0.00,,,0.00,23,Wunderground v.1.15,2013-01-13 00:17:00,
2013-01-12 16:22:00,37.3,14.0,30.22,ESE,102,0.0,1.0,38,0.00,,,0.00,28,Wunderground v.1.15,2013-01-13 00:22:00,
2013-01-12 16:27:00,37.2,15.1,30.22,NE,46,0.0,2.0,40,0.00,,,0.00,21,Wunderground v.1.15,2013-01-13 00:27:00,
2013-01-12 16:32:00,37.1,15.5,30.22,NE,44,2.0,4.0,41,0.00,,,0.00,12,Wunderground v.1.15,2013-01-13 00:32:00,
2013-01-12 16:37:00,36.9,15.9,30.22,NE,40,0.0,4.0,42,0.00,,,0.00,7,Wunderground v.1.15,2013-01-13 00:37:00,
2013-01-12 16:43:00,36.7,15.2,30.22,NE,44,0.0,1.0,41,0.00,,,0.00,5,Wunderground v.1.15,2013-01-13 00:43:00,
2013-01-12 16:48:00,36.5,15.0,30.22,NE,47,1.0,4.0,41,0.00,,,0.00,0,Wunderground v.1.15,2013-01-13 00:48:00,
2013-01-12 16:53:00,36.3,15.9,30.22,NE,45,0.0,2.0,43,0.00,,,0.00,0,Wunderground v.1.15,2013-01-13 00:53:00,
2013-01-12 16:58:00,35.9,16.1,30.22,ENE,61,0.0,2.0,44,0.00,,,0.00,0,Wunderground v.1.15,2013-01-13 00:58:00,
2013-01-12 17:03:00,35.3,17.5,30.22,NNW,329,1.0,1.0,48,0.00,,,0.00,0,Wunderground v.1.15,2013-01-13 01:03:00,
2013-01-12 17:08:00,35.3,15.5,30.22,NE,49,0.0,3.0,44,0.00,,,0.00,0,Wunderground v.1.15,2013-01-13 01:08:00,
2013-01-12 17:13:00,35.2,18.4,30.22,NE,49,0.0,0.0,50,0.00,,,0.00,0,Wunderground v.1.15,2013-01-13 01:13:00,
2013-01-12 17:18:00,34.7,18.9,30.23,NE,47,0.0,1.0,52,0.00,,,0.00,0,Wunderground v.1.15,2013-01-13 01:18:00,
2013-01-12 17:23:00,34.3,16.6,30.23,NE,47,0.0,0.0,48,0.00,,,0.00,0,Wunderground v.1.15,2013-01-13 01:23:00,
2013-01-12 17:28:00,33.9,19.0,30.23,ENE,63,0.0,2.0,54,0.00,,,0.00,0,Wunderground v.1.15,2013-01-13 01:28:00,
2013-01-12 17:33:00,34.1,15.9,30.23,ESE,109,1.0,4.0,47,0.00,,,0.00,0,Wunderground v.1.15,2013-01-13 01:33:00,
2013-01-12 17:38:00,34.3,16.6,30.24,ENE,71,1.0,5.0,48,0.00,,,0.00,0,Wunderground v.1.15,2013-01-13 01:38:00,
2013-01-12 17:43:00,34.3,17.1,30.24,NE,48,0.0,4.0,49,0.00,,,0.00,0,Wunderground v.1.15,2013-01-13 01:43:00,
2013-01-12 17:48:00,34.4,15.2,30.24,NE,56,3.0,4.0,45,0.00,,,0.00,0,Wunderground v.1.15,2013-01-13 01:48:00,
2013-01-12 17:53:00,34.5,15.8,30.24,East,81,0.0,2.0,46,0.00,,,0.00,0,Wunderground v.1.15,2013-01-13 01:53:00,
2013-01-12 17:58:00,34.4,17.2,30.24,NE,43,0.0,4.0,49,0.00,,,0.00,0,Wunderground v.1.15,2013-01-13 01:58:00,
2013-01-12 18:03:00,34.5,16.3,30.24,ENE,66,1.0,2.0,47,0.00,,,0.00,0,Wunderground v.1.15,2013-01-13 02:03:00,
2013-01-12 18:08:00,34.6,18.8,30.24,WNW,296,0.0,3.0,52,0.00,,,0.00,0,Wunderground v.1.15,2013-01-13 02:08:00,
2013-01-12 18:13:00,34.4,16.2,30.24,SW,219,1.0,3.0,47,0.00,,,0.00,0,Wunderground v.1.15,2013-01-13 02:13:00,
2013-01-12 18:18:00,34.5,15.8,30.25,ENE,73,0.0,3.0,46,0.00,,,0.00,0,Wunderground v.1.15,2013-01-13 02:18:00,
2013-01-12 18:23:00,34.3,17.1,30.25,East,92,0.0,2.0,49,0.00,,,0.00,0,Wunderground v.1.15,2013-01-13 02:23:00,
2013-01-12 18:28:00,34.2,17.0,30.25,SSE,148,0.0,2.0,49,0.00,,,0.00,0,Wunderground v.1.15,2013-01-13 02:28:00,
2013-01-12 18:33:00,34.1,17.8,30.25,ESE,113,0.0,2.0,51,0.00,,,0.00,0,Wunderground v.1.15,2013-01-13 02:33:00,
2013-01-12 18:38:00,33.8,17.1,30.25,ESE,114,1.0,2.0,50,0.00,,,0.00,0,Wunderground v.1.15,2013-01-13 02:38:00,
2013-01-12 18:44:00,33.7,18.4,30.25,East,100,0.0,2.0,53,0.00,,,0.00,0,Wunderground v.1.15,2013-01-13 02:44:00,
2013-01-12 18:49:00,33.7,17.5,30.25,SE,126,0.0,3.0,51,0.00,,,0.00,0,Wunderground v.1.15,2013-01-13 02:49:00,
2013-01-12 18:54:00,33.7,17.5,30.25,East,79,0.0,3.0,51,0.00,,,0.00,0,Wunderground v.1.15,2013-01-13 02:54:00,
2013-01-12 18:59:00,33.7,18.4,30.25,ENE,60,1.0,4.0,53,0.00,,,0.00,0,Wunderground v.1.15,2013-01-13 02:59:00,
2013-01-12 19:04:00,33.7,16.5,30.24,ENE,64,1.0,3.0,49,0.00,,,0.00,0,Wunderground v.1.15,2013-01-13 03:04:00,
2013-01-12 19:09:00,33.7,17.0,30.24,NE,40,2.0,4.0,50,0.00,,,0.00,0,Wunderground v.1.15,2013-01-13 03:09:00,
2013-01-12 19:14:00,33.7,17.0,30.24,NE,50,3.0,4.0,50,0.00,,,0.00,0,Wunderground v.1.15,2013-01-13 03:14:00,
2013-01-12 19:19:00,33.8,17.6,30.24,NE,44,4.0,4.0,51,0.00,,,0.00,0,Wunderground v.1.15,2013-01-13 03:19:00,
2013-01-12 19:24:00,33.9,15.8,30.24,ENE,58,1.0,7.0,47,0.00,,,0.00,0,Wunderground v.1.15,2013-01-13 03:24:00,
2013-01-12 19:29:00,34.1,15.9,30.24,NE,46,4.0,8.0,47,0.00,,,0.00,0,Wunderground v.1.15,2013-01-13 03:29:00,
2013-01-12 19:34:00,34.3,16.1,30.24,ENE,63,4.0,7.0,47,0.00,,,0.00,0,Wunderground v.1.15,2013-01-13 03:34:00,
2013-01-12 19:39:00,34.3,16.1,30.24,ENE,57,2.0,7.0,47,0.00,,,0.00,0,Wunderground v.1.15,2013-01-13 03:39:00,
2013-01-12 19:44:00,34.4,16.2,30.24,NE,55,2.0,5.0,47,0.00,,,0.00,0,Wunderground v.1.15,2013-01-13 03:44:00,
2013-01-12 19:49:00,34.4,15.2,30.24,NE,50,1.0,7.0,45,0.00,,,0.00,0,Wunderground v.1.15,2013-01-13 03:49:00,
2013-01-12 19:54:00,34.4,15.7,30.24,NE,46,5.0,5.0,46,0.00,,,0.00,0,Wunderground v.1.15,2013-01-13 03:54:00,
2013-01-12 19:59:00,34.3,15.6,30.24,NE,51,2.0,7.0,46,0.00,,,0.00,0,Wunderground v.1.15,2013-01-13 03:59:00,
2013-01-12 20:04:00,34.3,15.6,30.24,NE,54,1.0,4.0,46,0.00,,,0.00,0,Wunderground v.1.15,2013-01-13 04:04:00,
2013-01-12 20:09:00,34.3,15.6,30.24,NE,56,0.0,4.0,46,0.00,,,0.00,0,Wunderground v.1.15,2013-01-13 04:09:00,
2013-01-12 20:14:00,34.3,15.1,30.24,NE,55,3.0,4.0,45,0.00,,,0.00,0,Wunderground v.1.15,2013-01-13 04:14:00,
2013-01-12 20:19:00,34.3,15.6,30.24,ENE,58,2.0,7.0,46,0.00,,,0.00,0,Wunderground v.1.15,2013-01-13 04:19:00,
2013-01-12 20:24:00,34.3,15.6,30.24,NE,51,2.0,4.0,46,0.00,,,0.00,0,Wunderground v.1.15,2013-01-13 04:24:00,
2013-01-12 20:29:00,34.2,15.5,30.24,ENE,60,1.0,4.0,46,0.00,,,0.00,0,Wunderground v.1.15,2013-01-13 04:29:00,
2013-01-12 20:34:00,34.2,16.5,30.24,ENE,74,0.0,3.0,48,0.00,,,0.00,0,Wunderground v.1.15,2013-01-13 04:34:00,
2013-01-12 20:39:00,34.1,15.5,30.25,NE,42,0.0,5.0,46,0.00,,,0.00,0,Wunderground v.1.15,2013-01-13 04:39:00,
2013-01-12 20:44:00,34.0,15.4,30.25,West,272,0.0,5.0,46,0.00,,,0.00,0,Wunderground v.1.15,2013-01-13 04:44:00,
2013-01-12 20:49:00,34.1,14.9,30.25,NE,43,0.0,5.0,45,0.00,,,0.00,0,Wunderground v.1.15,2013-01-13 04:49:00,
2013-01-12 20:54:00,34.1,14.9,30.25,NE,42,0.0,4.0,45,0.00,,,0.00,0,Wunderground v.1.15,2013-01-13 04:54:00,
2013-01-12 20:59:00,34.1,15.5,30.24,NE,44,2.0,7.0,46,0.00,,,0.00,0,Wunderground v.1.15,2013-01-13 04:59:00,
2013-01-12 21:00:00,34.1,15.5,30.24,NE,36,0.0,7.0,46,0.00,,,0.00,0,Wunderground v.1.15,2013-01-13 05:00:00,
2013-01-12 21:03:00,34.1,15.5,30.25,NE,47,3.0,3.0,46,0.00,,,0.00,0,Wunderground v.1.15,2013-01-13 05:03:00,
2013-01-12 21:08:00,34.1,15.9,30.24,ENE,63,2.0,3.0,47,0.00,,,0.00,0,Wunderground v.1.15,2013-01-13 05:08:00,
2013-01-12 21:13:00,34.1,15.9,30.24,NE,46,2.0,4.0,47,0.00,,,0.00,0,Wunderground v.1.15,2013-01-13 05:13:00,
2013-01-12 21:18:00,34.0,16.8,30.25,ESE,111,0.0,4.0,49,0.00,,,0.00,0,Wunderground v.1.15,2013-01-13 05:18:00,
2013-01-12 21:23:00,33.8,14.7,30.25,NE,46,1.0,4.0,45,0.00,,,0.00,0,Wunderground v.1.15,2013-01-13 05:23:00,
2013-01-12 21:28:00,33.8,15.7,30.25,SE,140,2.0,4.0,47,0.00,,,0.00,0,Wunderground v.1.15,2013-01-13 05:28:00,
2013-01-12 21:33:00,33.7,14.6,30.25,ENE,61,1.0,5.0,45,0.00,,,0.00,0,Wunderground v.1.15,2013-01-13 05:33:00,
2013-01-12 21:38:00,33.7,15.6,30.25,ENE,69,2.0,5.0,47,0.00,,,0.00,0,Wunderground v.1.15,2013-01-13 05:38:00,
2013-01-12 21:43:00,33.7,15.1,30.26,ENE,66,0.0,2.0,46,0.00,,,0.00,0,Wunderground v.1.15,2013-01-13 05:43:00,
2013-01-12 21:48:00,33.6,16.5,30.26,NW,326,0.0,2.0,49,0.00,,,0.00,0,Wunderground v.1.15,2013-01-13 05:48:00,
2013-01-12 21:53:00,33.4,14.8,30.26,WSW,242,0.0,2.0,46,0.00,,,0.00,0,Wunderground v.1.15,2013-01-13 05:53:00,
2013-01-12 21:58:00,33.2,16.5,30.26,West,265,0.0,4.0,50,0.00,,,0.00,0,Wunderground v.1.15,2013-01-13 05:58:00,
2013-01-12 22:03:00,33.0,15.4,30.26,WSW,254,0.0,4.0,48,0.00,,,0.00,0,Wunderground v.1.15,2013-01-13 06:03:00,
2013-01-12 22:08:00,32.9,16.3,30.27,NNW,337,1.0,4.0,50,0.00,,,0.00,0,Wunderground v.1.15,2013-01-13 06:08:00,
2013-01-12 22:13:00,32.8,15.7,30.27,NNW,333,0.0,1.0,49,0.00,,,0.00,0,Wunderground v.1.15,2013-01-13 06:13:00,
2013-01-12 22:18:00,32.7,14.7,30.27,West,277,1.0,2.0,47,0.00,,,0.00,0,Wunderground v.1.15,2013-01-13 06:18:00,
2013-01-12 22:23:00,32.6,15.5,30.27,West,273,0.0,2.0,49,0.00,,,0.00,0,Wunderground v.1.15,2013-01-13 06:23:00,
2013-01-12 22:28:00,32.5,14.0,30.27,SSW,196,0.0,2.0,46,0.00,,,0.00,0,Wunderground v.1.15,2013-01-13 06:28:00,
2013-01-12 22:33:00,32.3,15.3,30.27,SW,223,0.0,2.0,49,0.00,,,0.00,0,Wunderground v.1.15,2013-01-13 06:33:00,
2013-01-12 22:38:00,32.3,14.8,30.27,East,95,1.0,3.0,48,0.00,,,0.00,0,Wunderground v.1.15,2013-01-13 06:38:00,
2013-01-12 22:44:00,32.5,17.2,30.27,ENE,69,0.0,2.0,53,0.00,,,0.00,0,Wunderground v.1.15,2013-01-13 06:44:00,
2013-01-12 22:49:00,32.5,17.7,30.27,NNW,330,0.0,2.0,54,0.00,,,0.00,0,Wunderground v.1.15,2013-01-13 06:49:00,
2013-01-12 22:54:00,32.3,16.2,30.27,ESE,109,0.0,2.0,51,0.00,,,0.00,0,Wunderground v.1.15,2013-01-13 06:54:00,
2013-01-12 22:59:00,32.2,17.4,30.28,SW,228,0.0,2.0,54,0.00,,,0.00,0,Wunderground v.1.15,2013-01-13 06:59:00,
2013-01-12 23:04:00,32.1,16.0,30.27,SSW,196,0.0,2.0,51,0.00,,,0.00,0,Wunderground v.1.15,2013-01-13 07:04:00,
2013-01-12 23:09:00,32.0,15.0,30.27,West,269,0.0,2.0,49,0.00,,,0.00,0,Wunderground v.1.15,2013-01-13 07:09:00,
2013-01-12 23:14:00,31.9,14.9,30.28,NW,311,0.0,2.0,49,0.00,,,0.00,0,Wunderground v.1.15,2013-01-13 07:14:00,
2013-01-12 23:19:00,31.9,15.8,30.28,ESE,104,3.0,3.0,51,0.00,,,0.00,0,Wunderground v.1.15,2013-01-13 07:19:00,
2013-01-12 23:24:00,32.0,15.4,30.28,SSW,210,2.0,2.0,50,0.00,,,0.00,0,Wunderground v.1.15,2013-01-13 07:24:00,
2013-01-12 23:29:00,31.9,16.2,30.28,WNW,286,1.0,3.0,52,0.00,,,0.00,0,Wunderground v.1.15,2013-01-13 07:29:00,
2013-01-12 23:34:00,32.0,14.5,30.28,North,360,0.0,1.0,48,0.00,,,0.00,0,Wunderground v.1.15,2013-01-13 07:34:00,
2013-01-12 23:39:00,32.1,16.0,30.28,NNW,338,0.0,1.0,51,0.00,,,0.00,0,Wunderground v.1.15,2013-01-13 07:39:00,
2013-01-12 23:44:00,32.0,15.4,30.28,East,82,0.0,2.0,50,0.00,,,0.00,0,Wunderground v.1.15,2013-01-13 07:44:00,
2013-01-12 23:49:00,32.1,16.0,30.27,East,82,0.0,2.0,51,0.00,,,0.00,0,Wunderground v.1.15,2013-01-13 07:49:00,
2013-01-12 23:54:00,32.1,16.0,30.27,NNW,327,0.0,0.0,51,0.00,,,0.00,0,Wunderground v.1.15,2013-01-13 07:54:00,
2013-01-12 23:59:00,31.9,16.7,30.27,NE,40,1.0,3.0,53,0.00,,,0.00,0,Wunderground v.1.15,2013-01-13 07:59:00,